Regional Weather Roundup
Issued by NWS

Home | Current Version | Previous Version | Text Only | Print | Product List | Glossary Off
Versions: 1 2 3 4 5 6 7 8 9 10 11 12 13 14 15 16 17 18 19 20 21 22 23 24 25 26 27 28 29 30 31 32 33 34 35 36 37 38 39 40 41 42 43 44 45 46 47 48 49 50

410
ASUS44 KMEG 280310
RWRTN
TENNESSEE HOURLY STATE WEATHER ROUNDUP
NATIONAL WEATHER SERVICE MEMPHIS TN
1000 PM CDT SAT AUG 27 2016

TNZ002-004-019-021-049-052-054-088>092-280400-
WEST TENNESSEE

CITY           SKY/WX    TMP DP  RH WIND       PRES   REMARKS
MEMPHIS INTL   PTCLDY    84  72  67 E7        30.06R
NWS MEMPHIS      N/A     78 N/A N/A MISG        N/A
JACKSON        CLEAR     77  76  96 CALM      30.07R
DYERSBURG      CLEAR     79  73  83 MISG      30.06
UNION CITY     CLEAR     75  75 100 CALM      30.06R
PARIS          CLEAR     75  72  88 SE3       30.10R
$$

TNZ008-025-027-028-033-062-065-066-280400-
NORTH MIDDLE TENNESSEE

CITY           SKY/WX    TMP DP  RH WIND       PRES   REMARKS
NASHVILLE      PTCLDY    74  72  93 CALM      30.11S
CLARKSVILLE    CLEAR     73  69  87 SE3       30.09R
COOKEVILLE     CLEAR     73  72  94 CALM      30.13S
CROSSVILLE     CLEAR     74  70  87 CALM      30.20R
$$

TNZ061-075-076-078-094-096-097-280400-
SOUTH MIDDLE TENNESSEE

CITY           SKY/WX    TMP DP  RH WIND       PRES   REMARKS
FAYETTEVILLE   CLOUDY    77  73  88 NE5       30.11R
TULLAHOMA      CLEAR     77  72  83 E3        30.14R
WINCHESTER     CLEAR     73  73 100 CALM      30.13R
MCMINNVILLE    CLEAR     75  75 100 CALM      30.13S
COLUMBIA       CLEAR    N/A N/A N/A CALM      30.10S
SHELBYVILLE    CLEAR     77  73  88 NW5       30.13R
$$

TNZ017-018-042-046-047-280400-
NORTHEAST TENNESSEE

CITY           SKY/WX    TMP DP  RH WIND       PRES   REMARKS
TRI CITIES     MOCLDY    76  70  82 CALM      30.20S
ELIZABETHTON     N/A     75  72  88 CALM      30.21S
$$

TNZ012-013-036-069-073-074-280400-
CENTRAL EAST TENNESSEE

CITY           SKY/WX    TMP DP  RH WIND       PRES   REMARKS
KNOXVILLE      MOCLDY    74  69  85 N3        30.14F
OAK RIDGE      PTCLDY    77  70  79 CALM      30.18R
GATLINBURG     CLEAR     72  70  94 CALM      30.16S
MORRISTOWN     MOCLDY    79  66  65 W6        30.18S
$$

TNZ083-085-099-280400-
SOUTHEAST TENNESSEE

CITY           SKY/WX    TMP DP  RH WIND       PRES   REMARKS
CHATTANOOGA    CLEAR     81  69  67 N6        30.12R
$$

SKY/WX REPORTED AS FAIR MEANS FEW OR NO CLOUDS BELOW
12 THOUSAND FEET.





USA.gov is the U.S. government's official web portal to all federal, state and local government web resources and services.